Flag Weather past 2 weeks in Thousand Oaks, California, U.S.A.

Now
68 °F

Sunny.


Feels Like: 68 °F
Forecast: 50 / 71 °F
Wind: 5 mph from South

Location: Camarillo Airport

Current Time: Nov 22, 2014 at 5:06:15 PM

Latest Report: Nov 22, 2014 at 3:55 PM


Visibility: 10 mi

Pressure: 30.02 "Hg

Humidity: 73%

Dew point: 59 °F

Location of Thousand OaksLocation

Historic Weather in Thousand Oaks — Graph

°F

Thousand Oaks temperature yesterday

Maximum temperature yesterday: 72 °F (at 1:55 PM)
Minimum temperature yesterday: 50 °F (at 5:55 AM)
Average temperature yesterday: 60 °F

Past Weeks' High & Low Weather Summary

 TemperatureHumidityPressure
High80 °F (Nov 18, 12:55 PM)93% (Nov 9, 3:55 AM)30.22 "Hg (Nov 9, 3:55 AM)
Low47 °F (Nov 20, 6:55 AM)4% (Nov 16, 1:55 PM)29.84 "Hg (Nov 9, 4:55 PM)
Average63 °F60%30.04 "Hg
* Reported Nov 7 2:55 PM — Nov 22 2:55 PM, Thousand Oaks, Weather by CustomWeather, © 2014

Note: Actual official high and low records may vary slightly from our data, if they occured in-between our weather recording intervals... More about our weather records

Advertising

Thousand Oaks weather history for previous 24 hours

 ConditionsComfort  
Time TempWeatherWind HumidityBarometerVisibility
2:55 PM
Nov 22
70 °FSunny.7 mph42%30.03 "Hg10 mi
1:55 PM70 °FSunny.7 mph46%30.04 "Hg10 mi
12:55 PM70 °FSunny.8 mph49%30.07 "Hg10 mi
11:55 AM70 °FSunny.8 mph49%30.09 "Hg10 mi
10:55 AM68 °FSunny.6 mph49%30.11 "Hg10 mi
9:55 AM67 °FSunny.No wind47%30.14 "Hg10 mi
8:55 AM62 °FSunny.3 mph39%30.13 "Hg10 mi
7:55 AM55 °FSunny.No wind57%30.12 "Hg10 mi
6:55 AM48 °FSunny.7 mph71%30.10 "Hg10 mi
5:55 AM47 °FClear.3 mph74%30.09 "Hg10 mi
4:55 AM50 °FClear.No wind66%30.08 "Hg10 mi
3:55 AM49 °FClear.No wind69%30.08 "Hg10 mi
2:55 AM50 °FClear.3 mph68%30.08 "Hg10 mi
1:55 AM51 °FClear.6 mph71%30.08 "Hg10 mi
12:55 AM53 °FClear.3 mph64%30.07 "Hg10 mi
11:55 PM
Nov 21
55 °FClear.5 mph64%30.06 "Hg10 mi
10:55 PM56 °FClear.3 mph65%30.07 "Hg10 mi
9:55 PM54 °FClear.6 mph77%30.05 "Hg10 mi
8:55 PM58 °FClear.3 mph70%30.05 "Hg10 mi
7:55 PM59 °FClear.6 mph72%30.04 "Hg10 mi
6:55 PM62 °FClear.3 mph73%30.02 "Hg10 mi
5:55 PM63 °FClear.3 mph73%30.01 "Hg10 mi
Weather by CustomWeather, © 2014

See weather overviewHow to use our weather pages